User: anonymous   Login
Location: Riddle Hill
(39.7867°N, 89.7645°W)
Time: 10:16:33
(UTC+00:00)
Language:

NOAA 12 - Orbit

View from above orbital plane
View from above orbital plane
View from above satellite
View from above satellite

Ground track
Ground track

The orbit data is extracted from the following two-line orbital elements,

1 21263U 91032A   21022.94689733  .00000001  00000-0  18024-4 0  9995
2 21263  98.5051  32.4846 0014331  37.3763 322.8412 14.25930859543978
Epoch (UTC): 22 January 2021 22:43:31
Eccentricity: 0.0014331
inclination: 98.5051°
perigee height: 795 km
apogee height: 815 km
right ascension of ascending node: 32.4846°
argument of perigee: 37.3763°
revolutions per day: 14.25930859
mean anomaly at epoch: 322.8412°
orbit number at epoch: 54397

The dashed part of the orbit path shows where the satellite is in the earth's shadow,  

DLR